Погода в Светлом

Россия / Архангельская область     64°02′31″N   42°41′50″E
темп.,
°C
ветер,
м/с
пор.,
м/с
влажн.,
%
обл.,
%
осадки,
мм/ч
давл.,
гПа
погр.,
м
28 сентября, вт
вт2800:00+8ююз2383100 0.0 103290
03:00+7зюз128861 0.0 103352
06:00+5зюз249590 0.0 103370
09:00+8з258355 0.0 1033250
12:00+11з346595 0.0 1033637
15:00+12зсз2362100 0.0 1032698
18:00+8зсз228492 0.0 103316
21:00+7зсз129358 0.0 103314
29 сентября, ср
ср2900:00+6зсз119517 0.0 103310
03:00+5з119558 0.0 103310
06:00+5з119778 0.0 103311
09:00+8з128692 0.0 1033161
12:00+11з2375100 0.0 1032356
15:00+12з357496 0.0 1031443
18:00+9з279414 0.0 1031166
21:00+7зсз3108912 0.0 1031253
30 сентября, чт
чт3000:00+6зсз311905 0.0 1031259
03:00+5зсз3109563 0.0 1031217
06:00+4зсз289643 0.0 1031173
09:00+8сз368212 0.0 1031238
12:00+11сз356551 0.0 1031581
15:00+13сз356489 0.0 1030784
18:00+8зсз268977 0.0 1030138
21:00+6сз249699 0.0 103082
1 октября, пт
пт100:00+5сз2396100 0.0 103154
03:00+4зсз239747 0.0 103056
06:00+3зсз239767 0.0 103058
09:00+6з2387100 0.0 1030188
12:00+10з2473100 0.0 1029495
15:00+10з3471100 0.0 1029756
18:00+7зюз229195 0.0 102827
21:00+5зюз229430 0.0 102932
2 октября, сб
сб200:00+4зюз22941 0.0 102830
03:00+3юз23965 0.0 102861
06:00+2юз249683 0.0 102879
09:00+6юз258465 0.0 1028215
12:00+8юз357999 0.0 1028329
15:00+8зюз268588 0.0 1029371
18:00+7юз2394100 0.0 102989
21:00+7ююз259490 0.0 1029145